Location: Newark
(59.8814°N, 10.8258°E)
Time: 00:57:52
(UTC+00:00)

Envisat - Pass Details

Date: 27 January 2020
Orbit: 764 x 766 km, 98.1° (Epoch: 20 February)

Event Time Altitude Azimuth Distance (km) Brightness Sun altitude
Rises 04:53:08 0° 21° (NNE) 3,249 6.5 -20.5°
Reaches altitude 10° 04:55:57 10° 36° (NE) 2,317 5.9 -20.2°
Maximum altitude 04:59:56 23° 87° (E) 1,613 5.5 -19.7°
Drops below altitude 10° 05:03:53 10° 139° (SE) 2,304 6.1 -19.2°
Sets 05:06:40 0° 154° (SSE) 3,225 6.7 -18.8°
